Regional Weather Roundup
Issued by NWS

Home | Current Version | Previous Version | Text Only | Print | Product List | Glossary Off
Versions: 1 2 3 4 5 6 7 8 9 10 11 12 13 14 15 16 17 18 19 20 21 22 23 24 25 26 27 28 29 30 31 32 33 34 35 36 37 38 39 40 41 42 43 44 45 46 47 48 49 50

000
ASUS43 KTOP 230659
RWRKS

WEATHER ROUNDUP FOR KANSAS
NATIONAL WEATHER SERVICE GOODLAND KS
200 AM CDT SAT JUL 23 2016

NOTE:  "FAIR" INDICATES FEW OR NO CLOUDS BELOW 12,000 FEET WITH NO
SIGNIFICANT WEATHER AND/OR OBSTRUCTIONS TO VISIBILITY.

KSZ001>006-013>018-027>032-041>047-230800-
NORTHWEST KANSAS

CITY           SKY/WX    TMP DP  RH WIND       PRES   REMARKS
GOODLAND       TSTM      78  61  55 S7        29.99S
HAYS           CLOUDY    82  59  44 S9        29.92S
HILL CITY      MOCLDY    84  61  45 SW12      29.92S
RUSSELL        CLOUDY    87  61  41 S13       29.90R
$$

KSZ061>065-074>080-084>089-230800-
SOUTHWEST KANSAS

CITY           SKY/WX    TMP DP  RH WIND       PRES   REMARKS
DODGE CITY     CLEAR     77  59  53 S9        29.97S
ELKHART          N/A    N/A N/A N/A MISG        N/A
GARDEN CITY    CLEAR     72  61  68 S5        29.97R
GREAT BEND     MOCLDY    84  61  45 S13       29.92S
LIBERAL        CLEAR     77  55  47 S10       30.00S
$$

KSZ066>073-081>083-090>101-230800-
SOUTHEAST KANSAS

CITY           SKY/WX    TMP DP  RH WIND       PRES   REMARKS
CHANUTE        CLEAR     78  73  84 MISG      29.97S
COFFEYVILLE    CLEAR     79  70  74 SE3       29.96S
HUTCHINSON     CLOUDY    79  64  60 SE6       29.94R
NEWTON         CLEAR     80  69  69 SE10      29.96S
PARSONS        CLEAR     79  71  76 CALM      29.98R
WICHITA INTL   CLEAR     84  67  56 S12       29.94S
WICHITA JABRA  CLEAR     80  69  69 S9        29.95S
WINFIELD       CLEAR     80  69  69 S9        29.96S
$$

KSZ007>012-019>026-033>040-048>060-102>105-230800-
NORTHEAST KANSAS

CITY           SKY/WX    TMP DP  RH WIND       PRES   REMARKS
CONCORDIA      CLOUDY    82  68  62 S16       29.90R
EMPORIA        CLEAR     80  71  74 SE9       29.96S
LAWRENCE       CLEAR     77  73  87 SE6       29.95F
MANHATTAN      CLOUDY    86  70  58 S9        29.91F
OLATHE IND     PTCLDY    79  72  79 S7        29.98F
OLATHE EXE     CLOUDY    78  72  81 S6        29.98F
SALINA         CLOUDY    85  67  54 S12       29.90S
TOPEKA BILLARD CLOUDY    83  71  67 SE6       29.94S
TOPEKA FORBES  CLOUDY    84  71  65 S8        29.95S
$$




USA.gov is the U.S. government's official web portal to all federal, state and local government web resources and services.